SCP
0 -0 -0 -0 -0 -0 -0 -0 -0 -0 -0 -0 -0 -0 -0 -0 -0 -0 -0 -0 -0 -0 -0 -0 0 0 0 0 0 0 0 0 0 0 0 -0 -0 -0 -0 -0 0 0 -0
-0 -0 -0 -0 -0 -0 -0 -0 -0 -0 -0 -0 -0 -0 -0 -0 -0 -0 -0 -0 0 0 -0 0 0 0 0 0 0 0 0 0 0 0 0 -0 -0 -0 -0 0 0 0 0
-0 -0 -0 -0 -0 -0 -0 -0 -0 -0 -0 -0 -0 -0 -0 -0 -0 0 -0 -0 -0 0 0 0 0 0 0 0 0 0 0 0 0 0 0 0 0 -0 -0 0 0 0 0
-0 -0 0 0 -0 -0 -0 -0 -0 -0 -0 -0 -0 -0 -0 -0 0 -0 -0 -0 0 0 0 0 0 0 0 0 0 0 0 0 0 0 0 0 0 0 0 0 0 0 0
0 0 0 0 0 -0 -0 -0 -0 -0 -0 -0 -0 -0 0 0 0 0 0 -0 0 0 0 0 0 0 0 0 0 0 0 0 0 0 0 0 0 0 0 0 0 0 0
0 0 0 0 0 -0 -0 -0 0 0 0 0 0 0 0 0 0 0 0 0 0 0 0 0 0 0 0 0 0 0 0 0 0 0 0 0 0 0 0 0 0 0 0
0 0 0 0 0 0 0 0 0 0 0 0 0 0 0 0 0 0 0 0 0 0 0 -0 -0 0 0 0 0 0 0 0 0 0 0 0 0 0 0 0 0 0 0
0 0 0 0 0 0 0 0 0 0 0 0 0 0 0 0 0 0 0 0 0 0 0 -0 -0 0 0 0 0 0 0 0 0 0 0 0 0 0 0 0 0 0 0
0 0 0 0 0 0 0 0 0 0 0 0 0 0 0 0 0 0 0 0 0 0 0 0 0 0 0 0 0 0 0 0 0 0 0 0 0 0 0 0 0 0 0
0 0 0 0 0 0 0 0 0 0 0 0 0 0 0 0 0 0 0 0 0 0 0 0 0 0 0 0 0 0 0 0 0 0 0 0 0 0 0 0 0 0 0
0 0 0 0 0 0 0 0 0 0 0 0 0 0 0 0 0 0 0 0 0 0 0 0 0 0 0 0 0 0 0 0 0 0 0 0 0 0 0 0 0 0 0
0 0 0 0 0 0 0 0 0 0 0 0 0 0 0 0 0 0 0 0 0 0 0 0 0 0 0 0 0 0 0 0 0 0 0 0 0 0 0 0 0 0 0
0 0 0 0 0 0 0 0 0 0 0 0 0 0 0 0 0 0 0 0 0 0 0 0 0 0 0 0 0 0 0 0 0 0 0 0 0 0 0 0 0 0 0
0 0 0 0 0 0 0 0 0 0 0 0 0 0 0 0 0 0 0 0 0 0 0 0 0 0 0 0 0 0 0 0 0 0 0 0 0 -0 0 0 1 0 0
0 0 0 0 0 0 0 0 0 0 0 0 0 0 0 0 0 0 0 0 0 0 0 0 0 0 0 0 0 0 0 0 0 0 0 0 0 0 0 0 1 0 0
0 0 0 0 0 0 0 0 0 0 0 0 0 0 0 0 0 0 0 0 0 0 0 0 0 0 0 0 0 0 0 0 0 0 0 0 0 0 0 0 1 1 1
0 0 0 0 0 0 0 0 0 0 0 0 0 0 0 0 0 0 0 0 0 0 0 0 0 0 0 0 0 0 0 0 0 0 0 0 0 0 0 0 1 1 0
0 0 0 0 0 0 0 0 0 0 0 0 0 0 0 0 0 0 0 0 0 0 0 0 0 0 0 0 0 0 0 0 0 0 0 0 0 0 0 0 1 1 1
0 0 0 0 0 0 0 0 0 0 0 0 0 0 0 0 0 0 0 0 0 0 0 0 0 0 0 0 0 0 0 0 0 0 0 0 0 0 0 0 0 0 1
0 0 0 0 0 0 0 0 0 0 0 0 0 0 0 0 0 0 0 0 0 0 0 0 0 0 0 0 0 0 0 0 0 0 0 0 0 0 0 0 0 0 0
0 0 0 0 0 0 0 0 0 0 0 0 0 0 0 0 0 0 0 0 0 0 0 0 0 0 0 0 0 0 0 0 0 0 0 0 0 0 0 0 0 0 0
0 0 0 0 0 0 0 0 0 0 -0 0 0 0 0 0 0 0 0 0 0 0 0 0 0 0 0 0 0 0 0 0 0 0 0 0 0 0 0 0 0 0 1
0 0 0 0 0 0 0 0 0 0 0 0 0 0 0 0 0 0 0 0 0 0 0 0 0 0 0 0 0 0 0 0 0 0 0 0 0 0 0 0 0 0 0
0 0 0 0 0 0 0 0 0 0 0 0 0 0 0 0 0 0 0 0 0 0 0 0 0 0 0 0 0 0 0 0 0 0 0 0 0 0 0 0 0 0 0
0 0 0 0 0 0 0 0 0 0 0 0 0 0 0 0 0 0 0 0 0 0 0 0 0 0 0 0 0 0 0 0 0 0 0 0 0 0 0 0 0 0 0
0 0 0 0 0 0 0 0 0 0 0 0 0 0 0 0 0 0 0 0 0 0 0 0 0 0 0 0 0 0 0 0 0 0 0 0 0 0 0 0 0 0 0
Wind_Speed_500mb
29 36 39 36 36 36 34 32 31 28 25 21 18 15 15 15 16 16 17 16 16 15 17 17 11 12 18 19 20 25 23 18 19 18 17 17 23 31 30 29 27 23 20
23 35 38 34 34 33 34 34 31 28 24 21 17 15 14 13 13 14 16 15 13 11 12 15 8 6 18 22 24 26 23 19 17 20 14 24 34 33 31 29 24 17 25
19 29 37 36 33 31 30 30 29 25 23 20 17 14 13 14 14 13 10 7 6 10 4 9 15 12 15 19 23 26 26 24 22 21 26 31 33 34 28 23 24 24 22
17 26 34 37 35 32 30 27 25 22 19 16 14 12 12 14 14 11 4 7 10 3 13 11 6 11 12 14 16 20 27 29 26 32 33 32 34 30 20 20 23 23 13
22 25 30 34 35 33 30 27 24 21 18 15 12 11 11 12 14 16 11 7 14 13 9 10 9 13 11 9 14 16 24 28 34 38 35 28 32 30 26 21 22 18 10
22 24 27 30 33 33 31 28 25 22 20 17 12 11 11 12 15 20 18 22 28 23 12 19 18 17 16 16 15 17 27 31 35 37 34 34 30 30 30 25 24 18 10
23 24 24 28 30 31 31 29 26 23 21 17 13 11 10 9 12 19 24 25 28 28 16 22 24 21 27 16 17 31 32 33 34 37 39 39 36 35 31 29 25 20 12
20 23 21 29 28 29 31 30 27 25 21 19 14 13 12 10 9 13 17 20 26 30 25 26 24 24 25 27 26 42 41 39 38 38 37 38 37 40 39 35 33 26 20
20 21 21 25 25 29 29 29 28 26 25 22 20 17 17 16 15 15 16 17 16 19 24 30 26 27 30 30 27 39 48 46 43 40 39 40 42 45 40 39 37 32 26
20 19 18 20 21 24 31 34 30 28 27 27 25 24 22 22 23 23 21 21 19 18 19 28 33 32 34 33 33 31 53 48 49 44 42 48 50 51 49 43 38 36 30
26 23 20 19 22 23 27 31 30 28 26 26 27 26 26 27 28 29 29 27 26 24 20 26 33 36 37 35 35 31 45 53 53 51 52 48 53 58 51 49 43 39 35
33 30 23 21 22 23 21 23 26 24 26 27 27 31 33 34 31 31 34 35 32 30 29 27 31 38 38 41 43 38 48 48 59 59 58 61 52 61 57 57 50 48 45
33 32 28 28 25 24 22 23 28 27 31 34 37 40 39 43 42 38 40 37 37 34 36 34 36 38 40 46 47 47 49 61 60 65 65 64 62 61 65 63 61 53 50
40 36 33 31 31 30 30 29 32 34 36 37 38 39 42 41 39 41 41 41 46 47 46 43 46 45 45 45 50 53 53 54 67 71 73 70 69 71 66 71 65 69 58
41 39 38 35 33 33 34 38 38 38 40 43 50 50 52 48 45 44 45 44 43 47 50 53 54 53 55 56 56 60 61 63 63 70 79 78 74 73 67 74 72 61 62
38 39 38 36 35 36 36 35 36 36 41 44 46 47 49 51 52 52 52 52 51 49 49 52 53 59 61 61 63 65 67 69 69 71 75 81 81 79 77 72 77 82 88
40 39 35 34 35 30 31 27 18 11 9 14 22 28 34 41 46 49 50 50 47 45 48 51 57 62 63 68 70 73 80 77 81 77 79 79 82 87 86 84 86 84 80
39 33 31 27 25 18 18 19 14 6 6 14 21 29 36 38 40 42 45 47 45 46 46 48 48 51 56 63 73 76 77 82 87 89 86 86 88 87 96 93 95 97 98
33 27 20 19 21 23 23 20 11 8 15 21 26 30 32 36 41 45 48 49 48 50 49 49 51 55 59 62 64 68 73 74 82 79 87 92 93 95 93 100 98 101 102
30 24 18 22 26 26 26 18 15 19 25 31 34 37 39 40 41 44 48 50 51 55 57 57 60 61 65 64 64 68 71 73 75 79 84 82 90 94 97 101 108 109 108
28 22 21 24 27 28 26 26 30 36 41 45 46 45 43 45 49 54 57 58 57 59 60 61 64 67 69 69 70 74 75 76 79 80 86 90 93 91 96 104 110 113 113
23 20 20 21 22 25 30 36 45 54 60 62 59 53 44 47 51 57 62 65 67 71 72 70 71 75 77 72 73 74 69 73 81 83 84 87 96 93 90 114 114 115 117
17 17 16 17 20 27 37 46 55 61 65 64 59 54 51 51 53 57 62 67 71 76 81 81 80 79 80 77 72 74 38 51 52 59 68 66 72 81 99 94 102 99 111
16 6 7 16 27 38 46 54 60 64 65 60 61 63 64 63 64 64 67 68 71 73 78 80 81 80 77 81 77 81 88 90 71 63 68 64 61 64 67 75 98 89 104
11 2 12 22 32 39 47 55 60 58 57 64 68 71 68 66 67 68 67 66 65 64 66 70 75 78 79 82 80 75 79 92 95 87 76 72 80 72 62 66 76 82 92
8 18 23 27 37 46 53 53 51 57 63 68 69 71 72 73 69 63 57 55 53 53 53 57 62 66 70 77 79 81 79 69 71 76 80 77 72 82 84 76 66 64 76
Wind_Direction_500mb
156 174 171 177 175 172 170 168 167 166 166 171 176 184 194 203 214 225 234 244 253 267 279 280 274 238 214 196 183 174 179 177 175 181 194 201 169 167 164 158 159 166 156
153 169 179 179 182 178 177 177 176 176 181 183 186 195 208 213 218 230 238 246 261 278 294 300 301 268 213 209 202 200 204 204 195 189 197 175 158 171 171 171 179 178 145
159 167 179 185 184 184 183 183 185 184 187 191 195 209 226 231 235 241 245 236 278 291 264 275 300 321 223 219 216 214 208 195 195 190 166 162 165 171 175 185 189 159 156
173 176 180 186 188 189 189 187 189 192 197 206 216 231 245 240 236 216 186 201 267 242 191 243 282 273 277 207 216 206 193 188 195 172 167 171 173 171 180 182 166 165 176
179 182 181 187 191 192 193 193 195 201 207 216 229 249 257 249 217 202 206 215 250 233 190 181 247 237 266 214 217 203 194 189 180 172 175 179 179 180 183 208 184 187 197
177 178 185 187 192 195 197 199 202 209 213 216 232 249 252 250 219 209 210 217 227 253 249 209 219 246 240 210 219 196 174 178 181 185 183 192 197 202 197 204 208 200 209
181 178 185 190 193 197 200 201 205 206 207 216 235 250 247 242 231 221 221 233 248 260 270 216 215 234 263 257 279 182 184 190 198 198 193 199 204 212 211 198 219 208 229
195 188 181 189 197 202 207 209 212 212 216 226 243 257 254 250 240 231 235 249 259 261 260 227 232 234 248 257 285 194 197 204 206 210 211 210 217 219 215 211 210 226 244
196 204 196 191 196 206 216 222 224 225 229 233 244 255 256 254 255 253 253 262 272 269 262 227 225 229 243 261 279 218 204 210 213 219 223 220 219 225 228 227 219 223 238
205 207 211 206 208 209 214 219 224 233 236 239 250 261 267 264 261 263 264 266 275 274 270 227 231 235 237 255 267 247 213 216 219 219 225 227 229 226 238 239 236 239 246
210 212 214 224 221 223 225 226 231 235 243 248 256 266 272 271 273 272 270 271 273 275 267 244 240 245 249 251 260 266 226 223 225 224 225 234 226 235 223 236 233 230 243
207 209 221 218 222 228 226 232 238 243 245 255 260 262 268 273 276 275 273 271 269 271 272 262 251 246 249 249 252 255 240 238 232 230 228 234 236 235 229 234 233 226 228
210 217 222 221 216 230 230 235 240 240 244 250 256 262 268 262 266 268 271 273 272 272 272 275 268 258 255 252 254 254 248 245 242 239 237 235 236 238 236 232 239 225 230
209 219 224 223 219 222 227 238 248 245 248 251 253 266 269 270 267 267 271 269 265 264 261 260 262 262 260 261 262 258 254 253 248 245 243 242 239 241 245 237 222 238 227
218 218 218 224 227 235 241 245 241 242 252 258 260 264 268 270 271 270 269 268 265 264 263 262 260 263 263 262 258 258 258 256 255 251 248 246 245 242 246 237 232 241 230
220 220 218 226 236 248 250 248 252 256 260 265 266 265 266 269 270 270 271 271 270 268 266 266 263 263 264 265 265 264 261 262 260 257 253 249 248 246 244 242 239 239 234
221 219 226 242 252 248 252 249 231 220 257 280 277 273 270 269 270 271 272 274 273 272 273 271 268 260 259 259 261 260 261 259 262 261 259 256 249 248 248 245 240 238 227
219 230 242 242 246 215 187 173 171 172 333 330 311 287 271 268 269 269 269 270 273 274 275 273 273 272 271 265 263 264 264 263 260 261 258 257 254 252 248 246 245 244 243
215 221 229 220 198 184 180 182 207 284 313 320 319 315 289 271 266 267 266 266 266 266 266 269 270 272 273 272 270 269 267 265 268 269 264 261 259 255 254 249 246 245 247
198 209 213 204 196 197 200 223 272 300 309 311 310 307 293 278 269 266 265 265 264 263 262 261 264 268 272 273 275 276 274 272 265 263 263 264 260 259 254 252 247 246 246
199 209 213 205 206 213 226 254 277 295 303 306 307 304 294 283 278 275 272 268 265 265 265 264 262 262 262 267 274 274 269 268 266 263 263 259 260 261 259 250 246 246 241
204 210 209 211 224 243 261 281 295 301 303 305 307 303 295 287 282 278 275 273 270 268 265 265 265 265 264 261 263 271 271 274 265 262 263 263 258 252 256 255 253 247 243
191 186 198 226 254 274 284 291 297 299 299 301 300 300 298 294 288 282 278 274 270 266 266 265 262 262 265 262 258 256 266 256 268 266 269 269 267 266 260 254 245 245 244
152 161 268 280 285 289 293 297 300 302 303 304 305 305 303 301 297 292 287 281 276 271 268 267 265 262 262 265 262 254 254 260 264 273 262 264 266 265 264 260 250 242 242
138 256 289 285 290 295 298 300 302 301 303 305 306 305 304 303 300 298 292 287 282 279 275 271 268 266 262 260 260 261 258 258 262 261 267 261 259 256 259 260 258 256 251
265 268 274 287 299 301 303 305 305 307 309 309 308 307 306 305 304 300 296 291 288 284 282 280 273 269 266 262 260 257 256 256 256 255 258 261 257 260 262 252 250 257 259
Wind_Speed_850mb
29 36 39 36 36 36 34 32 31 28 25 21 18 15 15 15 16 16 17 16 16 15 17 17 11 12 18 19 20 25 23 18 19 18 17 17 23 31 30 29 27 23 20
23 35 38 34 34 33 34 34 31 28 24 21 17 15 14 13 13 14 16 15 13 11 12 15 8 6 18 22 24 26 23 19 17 20 14 24 34 33 31 29 24 17 25
19 29 37 36 33 31 30 30 29 25 23 20 17 14 13 14 14 13 10 7 6 10 4 9 15 12 15 19 23 26 26 24 22 21 26 31 33 34 28 23 24 24 22
17 26 34 37 35 32 30 27 25 22 19 16 14 12 12 14 14 11 4 7 10 3 13 11 6 11 12 14 16 20 27 29 26 32 33 32 34 30 20 20 23 23 13
22 25 30 34 35 33 30 27 24 21 18 15 12 11 11 12 14 16 11 7 14 13 9 10 9 13 11 9 14 16 24 28 34 38 35 28 32 30 26 21 22 18 10
22 24 27 30 33 33 31 28 25 22 20 17 12 11 11 12 15 20 18 22 28 23 12 19 18 17 16 16 15 17 27 31 35 37 34 34 30 30 30 25 24 18 10
23 24 24 28 30 31 31 29 26 23 21 17 13 11 10 9 12 19 24 25 28 28 16 22 24 21 27 16 17 31 32 33 34 37 39 39 36 35 31 29 25 20 12
20 23 21 29 28 29 31 30 27 25 21 19 14 13 12 10 9 13 17 20 26 30 25 26 24 24 25 27 26 42 41 39 38 38 37 38 37 40 39 35 33 26 20
20 21 21 25 25 29 29 29 28 26 25 22 20 17 17 16 15 15 16 17 16 19 24 30 26 27 30 30 27 39 48 46 43 40 39 40 42 45 40 39 37 32 26
20 19 18 20 21 24 31 34 30 28 27 27 25 24 22 22 23 23 21 21 19 18 19 28 33 32 34 33 33 31 53 48 49 44 42 48 50 51 49 43 38 36 30
26 23 20 19 22 23 27 31 30 28 26 26 27 26 26 27 28 29 29 27 26 24 20 26 33 36 37 35 35 31 45 53 53 51 52 48 53 58 51 49 43 39 35
33 30 23 21 22 23 21 23 26 24 26 27 27 31 33 34 31 31 34 35 32 30 29 27 31 38 38 41 43 38 48 48 59 59 58 61 52 61 57 57 50 48 45
33 32 28 28 25 24 22 23 28 27 31 34 37 40 39 43 42 38 40 37 37 34 36 34 36 38 40 46 47 47 49 61 60 65 65 64 62 61 65 63 61 53 50
40 36 33 31 31 30 30 29 32 34 36 37 38 39 42 41 39 41 41 41 46 47 46 43 46 45 45 45 50 53 53 54 67 71 73 70 69 71 66 71 65 69 58
41 39 38 35 33 33 34 38 38 38 40 43 50 50 52 48 45 44 45 44 43 47 50 53 54 53 55 56 56 60 61 63 63 70 79 78 74 73 67 74 72 61 62
38 39 38 36 35 36 36 35 36 36 41 44 46 47 49 51 52 52 52 52 51 49 49 52 53 59 61 61 63 65 67 69 69 71 75 81 81 79 77 72 77 82 88
40 39 35 34 35 30 31 27 18 11 9 14 22 28 34 41 46 49 50 50 47 45 48 51 57 62 63 68 70 73 80 77 81 77 79 79 82 87 86 84 86 84 80
39 33 31 27 25 18 18 19 14 6 6 14 21 29 36 38 40 42 45 47 45 46 46 48 48 51 56 63 73 76 77 82 87 89 86 86 88 87 96 93 95 97 98
33 27 20 19 21 23 23 20 11 8 15 21 26 30 32 36 41 45 48 49 48 50 49 49 51 55 59 62 64 68 73 74 82 79 87 92 93 95 93 100 98 101 102
30 24 18 22 26 26 26 18 15 19 25 31 34 37 39 40 41 44 48 50 51 55 57 57 60 61 65 64 64 68 71 73 75 79 84 82 90 94 97 101 108 109 108
28 22 21 24 27 28 26 26 30 36 41 45 46 45 43 45 49 54 57 58 57 59 60 61 64 67 69 69 70 74 75 76 79 80 86 90 93 91 96 104 110 113 113
23 20 20 21 22 25 30 36 45 54 60 62 59 53 44 47 51 57 62 65 67 71 72 70 71 75 77 72 73 74 69 73 81 83 84 87 96 93 90 114 114 115 117
17 17 16 17 20 27 37 46 55 61 65 64 59 54 51 51 53 57 62 67 71 76 81 81 80 79 80 77 72 74 38 51 52 59 68 66 72 81 99 94 102 99 111
16 6 7 16 27 38 46 54 60 64 65 60 61 63 64 63 64 64 67 68 71 73 78 80 81 80 77 81 77 81 88 90 71 63 68 64 61 64 67 75 98 89 104
11 2 12 22 32 39 47 55 60 58 57 64 68 71 68 66 67 68 67 66 65 64 66 70 75 78 79 82 80 75 79 92 95 87 76 72 80 72 62 66 76 82 92
8 18 23 27 37 46 53 53 51 57 63 68 69 71 72 73 69 63 57 55 53 53 53 57 62 66 70 77 79 81 79 69 71 76 80 77 72 82 84 76 66 64 76
Wind_Direction_850mb
156 174 171 177 175 172 170 168 167 166 166 171 176 184 194 203 214 225 234 244 253 267 279 280 274 238 214 196 183 174 179 177 175 181 194 201 169 167 164 158 159 166 156
153 169 179 179 182 178 177 177 176 176 181 183 186 195 208 213 218 230 238 246 261 278 294 300 301 268 213 209 202 200 204 204 195 189 197 175 158 171 171 171 179 178 145
159 167 179 185 184 184 183 183 185 184 187 191 195 209 226 231 235 241 245 236 278 291 264 275 300 321 223 219 216 214 208 195 195 190 166 162 165 171 175 185 189 159 156
173 176 180 186 188 189 189 187 189 192 197 206 216 231 245 240 236 216 186 201 267 242 191 243 282 273 277 207 216 206 193 188 195 172 167 171 173 171 180 182 166 165 176
179 182 181 187 191 192 193 193 195 201 207 216 229 249 257 249 217 202 206 215 250 233 190 181 247 237 266 214 217 203 194 189 180 172 175 179 179 180 183 208 184 187 197
177 178 185 187 192 195 197 199 202 209 213 216 232 249 252 250 219 209 210 217 227 253 249 209 219 246 240 210 219 196 174 178 181 185 183 192 197 202 197 204 208 200 209
181 178 185 190 193 197 200 201 205 206 207 216 235 250 247 242 231 221 221 233 248 260 270 216 215 234 263 257 279 182 184 190 198 198 193 199 204 212 211 198 219 208 229
195 188 181 189 197 202 207 209 212 212 216 226 243 257 254 250 240 231 235 249 259 261 260 227 232 234 248 257 285 194 197 204 206 210 211 210 217 219 215 211 210 226 244
196 204 196 191 196 206 216 222 224 225 229 233 244 255 256 254 255 253 253 262 272 269 262 227 225 229 243 261 279 218 204 210 213 219 223 220 219 225 228 227 219 223 238
205 207 211 206 208 209 214 219 224 233 236 239 250 261 267 264 261 263 264 266 275 274 270 227 231 235 237 255 267 247 213 216 219 219 225 227 229 226 238 239 236 239 246
210 212 214 224 221 223 225 226 231 235 243 248 256 266 272 271 273 272 270 271 273 275 267 244 240 245 249 251 260 266 226 223 225 224 225 234 226 235 223 236 233 230 243
207 209 221 218 222 228 226 232 238 243 245 255 260 262 268 273 276 275 273 271 269 271 272 262 251 246 249 249 252 255 240 238 232 230 228 234 236 235 229 234 233 226 228
210 217 222 221 216 230 230 235 240 240 244 250 256 262 268 262 266 268 271 273 272 272 272 275 268 258 255 252 254 254 248 245 242 239 237 235 236 238 236 232 239 225 230
209 219 224 223 219 222 227 238 248 245 248 251 253 266 269 270 267 267 271 269 265 264 261 260 262 262 260 261 262 258 254 253 248 245 243 242 239 241 245 237 222 238 227
218 218 218 224 227 235 241 245 241 242 252 258 260 264 268 270 271 270 269 268 265 264 263 262 260 263 263 262 258 258 258 256 255 251 248 246 245 242 246 237 232 241 230
220 220 218 226 236 248 250 248 252 256 260 265 266 265 266 269 270 270 271 271 270 268 266 266 263 263 264 265 265 264 261 262 260 257 253 249 248 246 244 242 239 239 234
221 219 226 242 252 248 252 249 231 220 257 280 277 273 270 269 270 271 272 274 273 272 273 271 268 260 259 259 261 260 261 259 262 261 259 256 249 248 248 245 240 238 227
219 230 242 242 246 215 187 173 171 172 333 330 311 287 271 268 269 269 269 270 273 274 275 273 273 272 271 265 263 264 264 263 260 261 258 257 254 252 248 246 245 244 243
215 221 229 220 198 184 180 182 207 284 313 320 319 315 289 271 266 267 266 266 266 266 266 269 270 272 273 272 270 269 267 265 268 269 264 261 259 255 254 249 246 245 247
198 209 213 204 196 197 200 223 272 300 309 311 310 307 293 278 269 266 265 265 264 263 262 261 264 268 272 273 275 276 274 272 265 263 263 264 260 259 254 252 247 246 246
199 209 213 205 206 213 226 254 277 295 303 306 307 304 294 283 278 275 272 268 265 265 265 264 262 262 262 267 274 274 269 268 266 263 263 259 260 261 259 250 246 246 241
204 210 209 211 224 243 261 281 295 301 303 305 307 303 295 287 282 278 275 273 270 268 265 265 265 265 264 261 263 271 271 274 265 262 263 263 258 252 256 255 253 247 243
191 186 198 226 254 274 284 291 297 299 299 301 300 300 298 294 288 282 278 274 270 266 266 265 262 262 265 262 258 256 266 256 268 266 269 269 267 266 260 254 245 245 244
152 161 268 280 285 289 293 297 300 302 303 304 305 305 303 301 297 292 287 281 276 271 268 267 265 262 262 265 262 254 254 260 264 273 262 264 266 265 264 260 250 242 242
138 256 289 285 290 295 298 300 302 301 303 305 306 305 304 303 300 298 292 287 282 279 275 271 268 266 262 260 260 261 258 258 262 261 267 261 259 256 259 260 258 256 251
265 268 274 287 299 301 303 305 305 307 309 309 308 307 306 305 304 300 296 291 288 284 282 280 273 269 266 262 260 257 256 256 256 255 258 261 257 260 262 252 250 257 259